User: anonymous   Login
Location: Unspecified
(0.0000°N, 0.0000°E)
Time: 15:06:35
(UTC+00:00)
Language:

PAYLOAD B - Orbit

View from above orbital plane
View from above orbital plane
View from above satellite
View from above satellite

Ground track
Ground track

The orbit data is extracted from the following two-line orbital elements,

1 27056U 01058B   18260.61146874 -.00000021  00000-0 -18044-3 0  9993
2 27056  82.5344 229.3119 0006413 123.4089 236.7613 12.60508520769443
Epoch (UTC): 17 September 2018 14:40:30
Eccentricity: 0.0006413
inclination: 82.5344°
perigee height: 1416 km
apogee height: 1426 km
right ascension of ascending node: 229.3119°
argument of perigee: 123.4089°
revolutions per day: 12.60508520
mean anomaly at epoch: 236.7613°
orbit number at epoch: 76944

The dashed part of the orbit path shows where the satellite is in the earth's shadow,  

DLR